TimeCDT,TemperatureF,Dew PointF,Humidity,Sea Level PressureIn,VisibilityMPH,Wind Direction,Wind SpeedMPH,Gust SpeedMPH,PrecipitationIn,Events,Conditions,WindDirDegrees,DateUTC
12:53 AM,66.9,60.1,79,29.99,10.0,NE,10.4,-,N/A,,Mostly Cloudy,50,2013-05-02 05:53:00
1:08 AM,66.9,60.1,79,30.02,10.0,ENE,6.9,-,N/A,,Overcast,60,2013-05-02 06:08:00
1:53 AM,68.0,60.1,76,30.00,10.0,NE,10.4,-,N/A,,Overcast,50,2013-05-02 06:53:00
2:26 AM,66.9,60.1,79,30.02,10.0,North,12.7,-,N/A,,Overcast,10,2013-05-02 07:26:00
2:53 AM,66.0,60.1,81,30.00,10.0,North,13.8,-,N/A,,Overcast,360,2013-05-02 07:53:00
3:53 AM,66.9,59.0,76,30.00,10.0,NNW,18.4,-,N/A,,Overcast,340,2013-05-02 08:53:00
4:53 AM,55.0,51.1,86,30.04,6.0,NNW,25.3,-,0.00,Rain,Light Rain,340,2013-05-02 09:53:00
5:53 AM,53.1,46.9,80,30.09,10.0,NNW,24.2,28.8,0.00,Rain,Light Rain,340,2013-05-02 10:53:00
6:28 AM,50.0,46.9,89,30.13,5.0,NNW,19.6,26.5,0.00,Rain,Light Rain,330,2013-05-02 11:28:00
6:37 AM,50.0,46.9,89,30.13,5.0,NNW,20.7,-,0.00,,Light Drizzle,340,2013-05-02 11:37:00
6:53 AM,48.9,46.0,90,30.13,6.0,NNW,18.4,-,0.00,,Light Drizzle,330,2013-05-02 11:53:00
6:56 AM,48.9,46.0,90,30.15,2.5,NNW,20.7,-,0.00,,Light Drizzle,330,2013-05-02 11:56:00
7:53 AM,48.9,44.1,83,30.16,2.5,NNW,19.6,29.9,0.00,,Light Drizzle,330,2013-05-02 12:53:00
8:05 AM,48.9,44.1,83,30.17,8.0,NNW,21.9,-,0.00,,Light Drizzle,330,2013-05-02 13:05:00
8:53 AM,50.0,42.1,74,30.18,10.0,NNW,20.7,27.6,0.00,,Overcast,340,2013-05-02 13:53:00
9:53 AM,50.0,41.0,71,30.19,10.0,NNW,20.7,29.9,N/A,,Overcast,340,2013-05-02 14:53:00
10:53 AM,50.0,39.9,68,30.21,10.0,NNW,26.5,33.4,N/A,,Overcast,340,2013-05-02 15:53:00
11:53 AM,51.1,39.9,66,30.23,10.0,NNW,24.2,31.1,N/A,,Overcast,340,2013-05-02 16:53:00
12:53 PM,51.1,39.9,66,30.25,10.0,NNW,25.3,29.9,N/A,,Overcast,340,2013-05-02 17:53:00
1:53 PM,50.0,37.9,63,30.26,10.0,NW,27.6,36.8,N/A,,Overcast,320,2013-05-02 18:53:00
2:53 PM,48.0,37.0,66,30.26,10.0,NNW,32.2,39.1,N/A,,Overcast,340,2013-05-02 19:53:00
3:53 PM,46.9,37.9,71,30.26,10.0,NNW,26.5,34.5,0.02,,Overcast,340,2013-05-02 20:53:00
4:53 PM,46.0,37.9,73,30.27,10.0,NNW,28.8,34.5,0.00,,Overcast,340,2013-05-02 21:53:00
5:53 PM,45.0,37.9,76,30.28,10.0,NNW,28.8,36.8,0.00,,Overcast,340,2013-05-02 22:53:00
6:53 PM,44.1,37.0,76,30.30,10.0,NNW,27.6,32.2,0.00,Rain,Light Rain,340,2013-05-02 23:53:00
7:53 PM,44.1,37.0,76,30.31,9.0,North,23.0,35.7,0.00,Rain,Light Rain,350,2013-05-03 00:53:00
8:53 PM,45.0,35.1,68,30.32,10.0,NNW,24.2,33.4,0.00,,Overcast,340,2013-05-03 01:53:00
9:53 PM,46.0,35.1,66,30.32,10.0,North,19.6,-,N/A,,Mostly Cloudy,350,2013-05-03 02:53:00
10:00 PM,46.0,35.1,66,30.32,10.0,North,20.7,29.9,N/A,,Overcast,350,2013-05-03 03:00:00
10:53 PM,46.0,34.0,63,30.32,10.0,NNW,19.6,27.6,N/A,,Mostly Cloudy,340,2013-05-03 03:53:00
11:53 PM,46.0,33.1,61,30.31,10.0,North,23.0,31.1,N/A,,Mostly Cloudy,350,2013-05-03 04:53:00